Location: Deneb Observatory
(47.2267°N, 100.4953°W)
Time: 00:06:18
(UTC-05:00)

Iridium 66 - Visible Passes

Search period start: 26 July 2014 00:00
Search period end: 05 August 2014 00:00
Orbit: 776 x 779 km, 86.4° (Epoch: 25 July)

Date Brightness Start Highest point End Pass type
(mag) Time Alt. Az. Time Alt. Az. Time Alt. Az.
26 Jul 7.2 01:06:28 27° ESE 01:07:34 30° E 01:12:02 10° NNE visible
26 Jul 6.8 02:46:56 33° WSW 02:48:09 38° W 02:53:01 10° N visible
27 Jul 7.8 00:33:05 16° E 00:34:21 18° ENE 00:37:42 10° NE visible
27 Jul 6.1 02:13:33 55° SW 02:14:30 66° W 02:19:42 10° N visible
28 Jul 6.0 01:40:09 60° SE 01:40:57 72° E 01:46:10 10° N visible
28 Jul 7.9 03:20:37 15° W 03:22:17 17° WNW 03:25:35 10° NNW visible
29 Jul 6.7 01:06:45 38° ESE 01:07:33 41° E 01:12:25 10° NNE visible
29 Jul 7.3 02:47:13 25° W 02:48:24 28° WNW 02:52:52 10° NNW visible
30 Jul 7.4 00:33:21 23° E 00:34:15 24° E 00:38:22 10° NNE visible
30 Jul 6.5 02:13:49 43° WSW 02:14:40 47° W 02:19:42 10° N visible
30 Jul 8.0 23:59:56 13° E 00:01:05 14° ENE 00:03:43 10° NE visible
31 Jul 5.9 01:40:24 68° SSW 01:41:03 82° W 01:46:18 10° N visible
31 Jul 8.3 03:20:52 10° W 03:22:40 12° WNW 03:24:36 10° NW visible
01 Aug 6.2 01:06:59 54° ESE 01:07:34 57° E 01:12:41 10° N visible
01 Aug 7.7 02:47:27 19° W 02:48:42 20° WNW 02:52:33 10° NNW visible
02 Aug 6.9 00:33:33 32° E 00:34:12 33° E 00:38:49 10° NNE visible
02 Aug 7.0 02:14:01 32° W 02:14:52 34° WNW 02:19:37 10° NNW visible
03 Aug 7.6 00:00:07 19° E 00:00:57 20° ENE 00:04:36 10° NNE visible
03 Aug 6.2 01:40:36 55° WSW 01:41:11 59° W 01:46:21 10° N visible
03 Aug 8.2 23:26:41 10° E 23:27:49 11° ENE 23:29:16 10° NE visible
04 Aug 5.9 01:07:09 73° SSE 01:07:37 81° E 01:12:51 10° N visible
04 Aug 8.1 02:47:37 14° W 02:49:02 15° WNW 02:51:58 10° NW visible
